Location: *
(43.6428°N, 11.5461°E)
Time: 07:45:23
(UTC+00:00)

Cosmos 1934 Rocket - Pass Details

Date: 21 October 2019
Orbit: 939 x 998 km, 83.0° (Epoch: 18 November)

Event Time Altitude Azimuth Distance (km) Brightness Sun altitude
Rises 17:05:04 0° 351° (N) 3,712 7.1 -8.6°
Reaches altitude 10° 17:07:35 10° 352° (N) 2,765 6.4 -9.0°
Maximum altitude 17:13:58 89° 267° (W) 1,004 4.1 -10.2°
Drops below altitude 10° 17:20:20 10° 175° (S) 2,759 6.4 -11.3°
Sets 17:22:50 0° 175° (S) 3,703 7.0 -11.8°
